This demonstration page uses our WeatherBlox Daily Observations layout. Learn more.

Left ArrowRight Arrow

39.92423, -83.80882

Hourly Observations for June 23, 2018

Temp ( °F °C ) Dew Point ( °F °C ) Humidity (%) Winds ( mph kmh ) Pressure ( in mb ) Visibility ( mi km ) Precip ( " mm )
12:56 am 00:56 Mostly Cloudy 67 19.4 66 18.9 97 97 S 6 9 29.69 1005 10 16.0934 N/A
1:28 am 01:28 Cloudy 66 19 66 19 100 100 VRB 5 7 29.68 1005 9 14.48406 N/A
1:56 am 01:56 Cloudy 67 19.4 66 18.9 97 97 S 6 9 29.68 1005 9 14.48406 N/A
2:15 am 02:15 Cloudy 66 19 66 19 100 100 S 7 11 29.68 1005 9 14.48406 N/A
2:56 am 02:56 Cloudy 68 20 66 18.9 93 93 SSW 6 9 29.69 1005 10 16.0934 N/A
3:03 am 03:03 Cloudy 66 19 66 19 100 100 SSW 7 11 29.68 1005 10 16.0934 N/A
3:56 am 03:56 Cloudy 67 19.4 66 18.9 97 97 SW 7 11 29.68 1005 8 12.87472 N/A
4:56 am 04:56 Cloudy 67 19.4 66 18.9 97 97 SSW 8 13 29.7 1006 10 16.0934 N/A
5:56 am 05:56 Cloudy 67 19.4 65 18.3 93 93 SW 9 15 29.72 1006 10 16.0934 N/A
6:16 am 06:16 Mostly Cloudy 66 19 64 18 94 94 SW 10 17 29.71 1006 10 16.0934 N/A
6:43 am 06:43 Mostly Cloudy 66 19 64 18 94 94 SW 10 17 29.71 1006 10 16.0934 N/A
6:53 am 06:53 Mostly Cloudy 66 19 64 18 94 94 WSW 8 13 29.71 1006 10 16.0934 N/A
6:56 am 06:56 Mostly Cloudy 66 18.9 65 18.3 96 96 WSW 12 19 29.73 1007 10 16.0934 N/A
7:30 am 07:30 Cloudy 66 19 64 18 94 94 WSW 10 17 29.74 1007 10 16.0934 N/A
7:39 am 07:39 Cloudy 66 19 64 18 94 94 WSW 13 20 29.74 1007 10 16.0934 N/A
7:56 am 07:56 Cloudy 67 19.4 65 18.3 93 93 WSW 10 17 29.75 1007 10 16.0934 N/A
8:39 am 08:39 Cloudy 68 20 64 18 88 88 WSW 13 20 29.74 1007 10 16.0934 N/A
8:56 am 08:56 Cloudy 68 20 65 18.3 90 90 SW 12 19 29.75 1008 10 16.0934 N/A
9:48 am 09:48 Mostly Cloudy 70 21 64 18 83 83 WSW 13 20 29.74 1007 10 16.0934 N/A
9:56 am 09:56 Mostly Cloudy 70 21.1 65 18.3 84 84 WSW 14 22 29.75 1008 10 16.0934 N/A
10:56 am 10:56 Mostly Cloudy 72 22.2 66 18.9 82 82 WSW 13 20 29.76 1008 10 16.0934 N/A
11:37 am 11:37 Cloudy with Light Rain 70 21 64 18 83 83 SW 14 22 29.77 1008 9 14.48406 N/A
11:56 am 11:56 Cloudy with Light Rain 71 21.7 66 18.9 84 84 WSW 12 19 29.78 1008 10 16.0934 N/A
12:07 pm 12:07 Cloudy 72 22 66 19 83 83 SW 16 26 29.77 1008 10 16.0934 N/A
12:56 pm 12:56 Mostly Cloudy 74 23.3 65 18.3 74 74 WNW 12 19 29.77 1008 10 16.0934 N/A
1:40 pm 13:40 Mostly Cloudy 75 24 66 19 74 74 W 13 20 29.74 1007 10 16.0934 N/A
1:56 pm 13:56 Mostly Cloudy 76 24.4 66 18.9 72 72 SW 10 17 29.77 1008 10 16.0934 N/A
2:56 pm 14:56 Cloudy 75 23.9 65 18.3 71 71 W 13 20 29.77 1008 10 16.0934 N/A
3:56 pm 15:56 Cloudy 75 23.9 66 18.9 74 74 WSW 13 20 29.77 1008 10 16.0934 N/A
4:56 pm 16:56 Cloudy 76 24.4 65 18.3 69 69 SW 12 19 29.78 1008 10 16.0934 N/A
5:56 pm 17:56 Cloudy 75 23.9 65 18.3 71 71 WSW 10 17 29.78 1009 10 16.0934 N/A
6:56 pm 18:56 Cloudy 74 23.3 65 18.3 74 74 WSW 13 20 29.79 1009 10 16.0934 N/A
7:56 pm 19:56 Cloudy 73 22.8 65 18.3 76 76 WSW 8 13 29.8 1009 10 16.0934 N/A
8:18 pm 20:18 Cloudy 73 23 64 18 74 74 WSW 12 19 29.8 1009 10 16.0934 N/A
8:56 pm 20:56 Cloudy 72 22.2 64 17.8 76 76 W 9 15 29.81 1010 10 16.0934 N/A
9:56 pm 21:56 Cloudy 71 21.7 65 18.3 81 81 WNW 5 7 29.81 1010 10 16.0934 N/A
10:56 pm 22:56 Cloudy 70 21.1 65 18.3 84 84 W 5 7 29.83 1010 10 16.0934 N/A
11:56 pm 23:56 Clear 67 19.4 65 18.3 93 93 N N/A 29.83 1010 10 16.0934 N/A

Powered by AerisWeather